Regional Weather Roundup
Issued by NWS

Home | Current Version | Previous Version | Text Only | Print | Product List | Glossary On
Versions: 1 2 3 4 5 6 7 8 9 10 11 12 13 14 15 16 17 18 19 20 21 22 23 24 25 26 27 28 29 30 31 32 33 34 35 36 37 38 39 40 41 42 43 44 45 46 47 48 49 50
000
ASUS44 KFWD 240315
RWRTX
NORTH TEXAS HOURLY WEATHER ROUNDUP
NATIONAL WEATHER SERVICE FORT WORTH TX
900 PM CST MON JAN 23 2017

NOTE: "FAIR" INDICATES FEW OR NO CLOUDS BELOW 12,000 FEET WITH NO
SIGNIFICANT WEATHER AND/OR OBSTRUCTIONS TO VISIBILITY.

TXZ118-119-240400-
DALLAS/FORT WORTH METROPLEX

CITY           SKY/WX    TMP DP  RH WIND       PRES   REMARKS
DFW AIRPORT    PTCLDY    54  39  57 SE7       29.76S
DALLAS LOVE    PTCLDY    60  37  42 S13       29.78F
FTW MEACHAM    CLEAR     54  38  54 S8        29.76F
DAL-EXECUTIVE  CLEAR     57  39  51 S8        29.78S
FTW-ALLIANCE   CLEAR     56  38  50 S6        29.77S
FTW-NAS-JRB    CLEAR     57  39  51 SE6       29.77S
FTW-SPINKS     CLEAR     56  39  53 S7        29.79S
ARLINGTON      CLEAR     54  39  57 SE8       29.78S
GRAND PRAIRIE  CLEAR     56  38  50 SE6       29.80S
ADDISON        CLEAR     59  37  44 SE14G21   29.78F
MESQUITE       CLEAR     50  37  60 SE6       29.80F
LANCASTER      CLEAR     50  38  63 CALM      29.81S
$$

TXZ091>094-102>105-117-120-121-131>134-240400-
NORTH CENTRAL TEXAS

CITY           SKY/WX    TMP DP  RH WIND       PRES   REMARKS
SHRMAN/DENISON CLEAR     54  36  51 SE9       29.78S HAZE
GAINESVILLE    CLEAR     48  35  59 SE6       29.78S
BOWIE          CLEAR     53  37  54 SE5       29.75S
BRIDGEPORT     CLEAR     55  40  57 S6        29.76S
DECATUR        CLEAR     54  37  51 SE10      29.76S
DENTON         CLEAR     52  38  58 SE9       29.76F
MCKINNEY       CLEAR     50  39  66 SE6       29.79S
BONHAM         CLEAR     50  34  53 SE9       29.80S
GREENVILLE     CLEAR     48  36  61 SE3       29.81F
ROCKWALL       CLEAR     54  36  50 S6        29.80S
TERRELL        CLEAR     52  34  50 S6        29.81F
WAXAHACHIE     CLEAR     52  41  65 SE6       29.80F
GRANBURY       CLEAR     58  41  54 SE3       29.78S
$$

TXZ083>090-098>101-113>116-127>130-139>142-154-155-240400-
WESTERN NORTH TEXAS

CITY           SKY/WX    TMP DP  RH WIND       PRES   REMARKS
WICHITA FALLS  CLEAR     51  35  54 SE12      29.70F HAZE
WF-KICKAPOO    CLEAR     49  37  63 SE13      29.72S
VERNON         CLEAR     55  36  47 S10       29.68S
ABILENE        CLEAR     54  38  54 S10       29.76F
ABILENE-DYESS  CLEAR     51  38  61 SW9       29.74F
GRAHAM         CLEAR     57  37  47 SE3       29.71F
BRECKENRIDGE   CLEAR     62  36  37 S9        29.74S
CISCO          CLEAR     59  37  44 S8        29.77F
RANGER         CLEAR     59  36  41 S8        29.77S
MINERAL WELLS  CLEAR     54  38  54 SE13      29.74S
STEPHENVILLE   CLEAR     55  37  49 S5        29.80F
COMANCHE       CLEAR     57  39  51 S10       29.79F
BROWNWOOD      CLEAR     55  39  54 S5        29.79F
COLEMAN        CLEAR     57  37  47 S8        29.79S
$$

TXZ143>147-156>162-174-175-240400-
CENTRAL TEXAS

CITY           SKY/WX    TMP DP  RH WIND       PRES   REMARKS
WACO           CLEAR     54  42  64 S8        29.81S
WACO-TSTC      CLEAR     55  39  54 S7        29.81S
WACO-MCGREGOR  CLEAR     55  43  63 S10       29.81S
HILLSBORO      CLEAR     59  42  53 S12       29.79F
CORSICANA      CLEAR     54  39  57 SE8       29.82F
MEXIA          CLEAR     54  37  53 SE9       29.81F
HEARNE         CLEAR     58  40  51 SE6       29.85S
CAMERON        CLEAR     61  37  41 S7        29.84S
TEMPLE         CLEAR     55  39  54 S8        29.83S
KILLEEN        CLEAR     50  40  67 SE6       29.81S
KILLEEN-SKYLRK CLEAR     57  39  51 S6        29.83R
FORT HOOD      CLEAR     55  39  54 S6        29.80R
GATESVILLE     CLEAR     54  39  58 CALM      29.83S
HAMILTON       CLEAR     52  39  61 S10       29.81S
LAMPASAS       CLEAR     56  39  52 CALM      29.81S
$$

TXZ095>097-106>112-122>126-135>138-148>153-164>167-240400-
EAST TEXAS

CITY           SKY/WX    TMP DP  RH WIND       PRES   REMARKS
PARIS          CLEAR     46  32  57 SE8       29.82S
SULPHUR SPRNGS CLEAR     52  33  47 SE5       29.84S
MOUNT PLEASANT CLEAR     47  36  64 SE3       29.85S
GILMER         CLEAR     47  38  70 CALM      29.84R
MINEOLA        CLEAR     46  36  66 SE3       29.83S
TYLER          CLEAR     51  36  56 S7        29.83S
LONGVIEW       CLEAR     49  40  71 S3        29.84S
MARSHALL       CLEAR     44  40  87 CALM      29.87S
ATHENS         CLEAR     46  34  61 CALM      29.82S
PALESTINE      CLEAR     54  38  54 SE5       29.85F
JACKSONVILLE   CLEAR     54  36  51 S5        29.86F
HENDERSON      CLEAR     46  38  75 CALM      29.86S
CENTER         CLEAR     47  44  90 E7        29.88S
NACOGDOCHES    CLEAR     45  37  76 CALM      29.86S
LUFKIN         CLEAR     47  41  80 E3        29.87S
$$

SUPPLEMENTAL OBSERVATIONS (CENTRAL)

CITY           SKY/WX    TMP DP  RH WIND       PRES   REMARKS
DENISON DAM      N/A     52  32  46 E5          N/A
CADDO GRASSLND   N/A     52  36  54 S5          N/A
PAT MAYSE LAKE   N/A     54  30  40 SE7         N/A
GREENVILLE       N/A     52  32  46 SE5         N/A
CEDAR HILL       N/A     59  37  44 SE12G20     N/A
LAKE LIMESTONE   N/A     55  36  47 SE2         N/A
MCGREGOR         N/A     55  37  50 SW5G16      N/A
TEMPLE           N/A     57  37  47 S7          N/A
$$

SUPPLEMENTAL OBSERVATIONS (WEST)

CITY           SKY/WX    TMP DP  RH WIND       PRES   REMARKS
MILLERS CREEK    N/A     54  39  58 SW9         N/A
POSSUM KINGDOM   N/A     61  37  41 S8          N/A
LBJ GRASSLAND    N/A     57  37  47 SE10        N/A
GRANBURY         N/A     57  39  51 SE5         N/A
COMANCHE         N/A     57  36  44 S9          N/A
HAMBY            N/A     55  37  50 S9          N/A
IVIE RESERVOIR   N/A     59  36  41 S8          N/A
COLORADO BEND    N/A     57  32  38 SW6         N/A
$$

SUPPLEMENTAL OBSERVATIONS (EAST)

CITY           SKY/WX    TMP DP  RH WIND       PRES   REMARKS
CLARKSVILLE      N/A     48  30  49 SE3         N/A
TEXARKANA        N/A     39  36  87 CALM        N/A
LINDEN           N/A     43  37  81 CALM        N/A
CADDO LAKE       N/A     39  37  93 CALM        N/A
GILMER           N/A     45  37  76 CALM        N/A
HENDERSON        N/A     45  37  76 SE1         N/A
LUFKIN           N/A     46  43  87 MISG        N/A
N SABINE NF      N/A     45  41  87 MISG        N/A
S SABINE NF      N/A     45  41  87 CALM        N/A
$$

SUPPLEMENTAL OBSERVATIONS ARE A COLLECTION OF AUTOMATED INSTRUMENTS
THAT ARE MAINTAINED BY A VARIETY OF FEDERAL AND STATE AGENCIES.
CERTAIN ELEMENTS...SUCH AS HUMIDITY VALUES AND SUSTAINED WIND
SPEEDS...MAY BE APPROXIMATED.





USA.gov is the U.S. government's official web portal to all federal, state and local government web resources and services.